Location: London
(51.5074°N, 0.1278°W)
Time: 22:54:14
(UTC+01:00)

DELFI C3 - Pass Details

Date: 01 October 2020
Orbit: 535 x 549 km, 97.4° (Epoch: 22 October)

Event Time Altitude Azimuth Distance (km) Brightness Sun altitude
Exits shadow 19:53:34 18° 121° (ESE) 1,368 ? -12.7°
Maximum altitude 19:55:52 33° 67° (ENE) 926 ? -13.0°
Drops below altitude 10° 19:59:26 10° 3° (N) 1,831 ? -13.6°
Sets 20:01:42 0° 354° (N) 2,732 ? -13.9°
